Location: Peebles
(55.6412°N, 3.1714°W)
Time: 06:26:22
(UTC+01:00)

FENGYUN 1C DEB - Pass Details

Date: 09 July 2022
Orbit: 749 x 887 km, 98.1° (Epoch: 14 August)

Event Time Altitude Azimuth Distance (km) Brightness Sun altitude
Rises 01:17:52 0° 20° (NNE) 3,505 ? -12.0°
Reaches altitude 10° 01:20:47 10° 34° (NE) 2,552 ? -12.0°
Maximum altitude 01:25:22 25° 88° (E) 1,707 ? -12.0°
Drops below altitude 10° 01:29:51 10° 142° (SE) 2,487 ? -11.9°
Enters shadow 01:30:16 - 145° (SE) 2,615 ? -11.9°
